User: anonymous   Login
Location: La Comballaz
(46.3780°N, 7.0817°E)
Time: 09:17:08
(UTC+00:00)
Language:

AO-91 - Orbit

View from above orbital plane
View from above orbital plane
View from above satellite
View from above satellite

Ground track
Ground track

The orbit data is extracted from the following two-line orbital elements,

1 43017U 17073E   22330.62094047  .00005103  00000-0  37703-3 0  9997
2 43017  97.6536 218.1106 0244979  16.5843 344.3205 14.82684046271132
Epoch (UTC): 26 November 2022 14:54:09
Eccentricity: 0.0244979
inclination: 97.6536°
perigee height: 449 km
apogee height: 792 km
right ascension of ascending node: 218.1106°
argument of perigee: 16.5843°
revolutions per day: 14.82684046
mean anomaly at epoch: 344.3205°
orbit number at epoch: 27113

The dashed part of the orbit path shows where the satellite is in the earth's shadow,  

DLR